Regional Weather Roundup
Issued by NWS

Home | Current Version | Previous Version | Text Only | Print | Product List | Glossary Off
Versions: 1 2 3 4 5 6 7 8 9 10 11 12 13 14 15 16 17 18 19 20 21 22 23 24 25 26 27 28 29 30 31 32 33 34 35 36 37 38 39 40 41 42 43 44 45 46 47 48 49 50

000
ASUS43 KLOT 281502
RWRIL

ILLINOIS REGIONAL WEATHER ROUNDUP
NATIONAL WEATHER SERVICE CHICAGO/ROMEOVILLE IL
1000 AM CDT SAT MAR 28 2015

NOTE: "FAIR" INDICATES FEW OR NO CLOUDS BELOW 12,000 FEET WITH NO
SIGNIFICANT WEATHER AND/OR OBSTRUCTIONS TO VISIBILITY.

* THESE STATIONS ARE NOT UNDER NWS QUALITY CONTROL. THEY ALSO MAY NOT
  REPORT WEATHER SUCH AS PRECIPITATION OR FOG.

ILZ001-002-007-009-015-016-024-281600-
NORTHWEST ILLINOIS

CITY           SKY/WX    TMP DP  RH WIND       PRES   REMARKS
MOLINE         SUNNY     30  17  58 SE7       30.34R WCI  23
STERLING*      SUNNY     30  16  55 SE5       30.35R WCI  25
$$

ILZ003-004-008-010-011-017-018-281600-
NORTH CENTRAL ILLINOIS

CITY           SKY/WX    TMP DP  RH WIND       PRES   REMARKS
ROCKFORD       MOSUNNY   30  14  51 S6        30.36R WCI  24
$$

ILZ005-006-012>014-019>023-281600-
NORTHEAST ILLINOIS

CITY           SKY/WX    TMP DP  RH WIND       PRES   REMARKS
CHICAGO-OHARE  MOSUNNY   29  10  45 NE7       30.33R WCI  22
CHICAGO-MIDWAY MOSUNNY   30  11  45 NE6       30.34R WCI  24
AURORA         SUNNY     29  12  49 NE9       30.34R WCI  20
WAUKEGAN       SUNNY     27  13  55 E9        30.34R WCI  18
DUPAGE AIRPORT SUNNY     30  14  51 NE9       30.33R WCI  22
WHEELING       SUNNY     29  10  45 NE8       30.36R WCI  21
NORTHERLY ISL    N/A     28  12  51 N7          N/A  WCI  21
$$

LMZ740>746-281600-
SOUTHERN LAKE MICHIGAN

STATION/POSITION SKY/WX   TEMP    WIND        PRES    VSBY  WAVE
                          AIR SEA DIR/SP/G                  HT/PER
                          (F)     (DEG/KT/KT) (MB)    (MI)  (FT/S)
HARRISON CRIB              25      40/  8/ 10   N/A
BURNHAM HARBOR             28      40/  8/ 10   N/A
CALUMET HARBOR             26      20/  7/ 12 1025.6R
BURNS HARBOR               23      70/  8/ 10 1027.1R
MICHIGAN CITY              20      30/  6/  9   N/A
$$

ILZ025>027-034>036-040-047-049-050-058-095>099-281600-
WEST-CENTRAL ILLINOIS

CITY           SKY/WX    TMP DP  RH WIND       PRES   REMARKS
QUINCY         SUNNY     33  16  49 SE10      30.31R WCI  25
$$

ILZ028>032-037-038-041>044-048-051>054-059>061-281600-
CENTRAL ILLINOIS

CITY           SKY/WX    TMP DP  RH WIND       PRES   REMARKS
DECATUR        SUNNY     29  16  58 E8        30.34R WCI  21
PEORIA         SUNNY     31  14  49 VRB5      30.34R WCI  26
SPRINGFIELD    SUNNY     31  15  52 SE6       30.34R WCI  25
TAYLORVILLE    NOT AVBL
$$

ILZ033-039-045-046-055>057-062-063-281600-
EAST-CENTRAL ILLINOIS

CITY           SKY/WX    TMP DP  RH WIND       PRES   REMARKS
CHAMPAIGN      SUNNY     30  15  53 E8        30.32R WCI  22
MATTOON        SUNNY     27  15  61 NE10      30.31R WCI  17
$$

ILZ079-100>102-281600-
SOUTHWEST ILLINOIS

CITY           SKY/WX    TMP DP  RH WIND       PRES   REMARKS
BELLEVILLE     FAIR      32  24  71 VRB6      30.32R WCI  27
CAHOKIA*       FAIR      35  21  56 SE5       30.33R WCI  31
$$

ILZ064>066-069>071-074>076-080>082-084>086-088>090-092>094-281600-
SOUTH-CENTRAL ILLINOIS

CITY           SKY/WX    TMP DP  RH WIND       PRES   REMARKS
CARBONDALE     MOSUNNY   34  21  59 E6        30.33R WCI  29
MARION         MOSUNNY   34  23  64 N6        30.34R WCI  29
MT. VERNON     SUNNY     30  16  55 CALM      30.34R
$$

ILZ067-068-072-073-078-083-087-091-281600-
SOUTHEAST ILLINOIS

CITY           SKY/WX    TMP DP  RH WIND       PRES   REMARKS
LAWRENCEVILLE  SUNNY     29  17  61 N6        30.34R WCI  23
$$

ABBREVIATIONS USED IN REMARKS
   TC - TEMPERATURE IN CELSIUS
  WCI - WIND CHILL INDEX
   HX - HEAT INDEX
  VSB - VISIBILITY
$$



USA.gov is the U.S. government's official web portal to all federal, state and local government web resources and services.